TimeEDT,TemperatureF,Dew PointF,Humidity,Sea Level PressureIn,VisibilityMPH,Wind Direction,Wind SpeedMPH,Gust SpeedMPH,PrecipitationIn,Events,Conditions,WindDirDegrees,DateUTC
12:15 AM,42.8,33.8,70,30.02,10.0,North,3.5,-,N/A,,Clear,360,2013-04-08 04:15:00
12:35 AM,42.8,33.8,70,30.02,10.0,North,5.8,-,N/A,,Clear,10,2013-04-08 04:35:00
12:55 AM,41.0,33.8,76,30.02,10.0,Calm,Calm,-,N/A,,Clear,0,2013-04-08 04:55:00
1:15 AM,39.2,33.8,81,30.03,10.0,Calm,Calm,-,N/A,,Clear,0,2013-04-08 05:15:00
1:35 AM,41.0,33.8,76,30.03,10.0,North,3.5,-,N/A,,Clear,10,2013-04-08 05:35:00
1:55 AM,41.0,33.8,76,30.04,10.0,North,3.5,-,N/A,,Clear,10,2013-04-08 05:55:00
2:15 AM,39.2,33.8,81,30.04,10.0,North,3.5,-,N/A,,Clear,10,2013-04-08 06:15:00
2:35 AM,37.4,33.8,87,30.04,10.0,Calm,Calm,-,N/A,,Clear,0,2013-04-08 06:35:00
2:55 AM,39.2,33.8,81,30.04,10.0,North,3.5,-,N/A,,Clear,360,2013-04-08 06:55:00
3:15 AM,39.2,33.8,81,30.04,10.0,NNE,4.6,-,N/A,,Clear,20,2013-04-08 07:15:00
3:35 AM,39.2,33.8,81,30.03,10.0,Calm,Calm,-,N/A,,Clear,0,2013-04-08 07:35:00
3:55 AM,37.4,33.8,87,30.04,10.0,NE,3.5,-,N/A,,Clear,40,2013-04-08 07:55:00
4:15 AM,39.2,33.8,81,30.04,10.0,Calm,Calm,-,N/A,,Clear,0,2013-04-08 08:15:00
4:35 AM,37.4,33.8,87,30.03,10.0,NE,4.6,-,N/A,,Clear,50,2013-04-08 08:35:00
4:55 AM,37.4,33.8,87,30.03,9.0,ENE,4.6,-,N/A,,Clear,60,2013-04-08 08:55:00
5:15 AM,37.4,32.0,81,30.03,8.0,ENE,3.5,-,N/A,,Clear,60,2013-04-08 09:15:00
5:35 AM,37.4,33.8,87,30.03,8.0,NE,5.8,-,N/A,,Clear,40,2013-04-08 09:35:00
5:55 AM,33.8,30.2,87,30.03,4.0,NE,3.5,-,N/A,,Clear,40,2013-04-08 09:55:00
6:15 AM,35.6,32.0,87,30.03,7.0,East,5.8,-,N/A,,Clear,90,2013-04-08 10:15:00
6:35 AM,35.6,32.0,87,30.03,7.0,East,4.6,-,N/A,,Clear,100,2013-04-08 10:35:00
6:55 AM,35.6,33.8,93,30.04,5.0,ESE,5.8,-,N/A,,Clear,110,2013-04-08 10:55:00
7:15 AM,35.6,32.0,87,30.04,6.0,ESE,6.9,-,N/A,,Clear,110,2013-04-08 11:15:00
7:35 AM,37.4,33.8,87,30.05,6.0,ESE,5.8,-,N/A,,Clear,120,2013-04-08 11:35:00
7:55 AM,39.2,35.6,87,30.06,9.0,SE,4.6,-,N/A,,Clear,140,2013-04-08 11:55:00
8:15 AM,42.8,35.6,76,30.07,10.0,SE,6.9,-,N/A,,Partly Cloudy,130,2013-04-08 12:15:00
8:35 AM,42.8,35.6,76,30.07,10.0,East,3.5,-,N/A,,Mostly Cloudy,80,2013-04-08 12:35:00
8:55 AM,41.0,35.6,81,30.07,9.0,East,4.6,-,N/A,,Overcast,100,2013-04-08 12:55:00
9:15 AM,42.8,35.6,76,30.06,10.0,East,3.5,-,N/A,,Overcast,80,2013-04-08 13:15:00
9:35 AM,42.8,35.6,76,30.05,10.0,East,3.5,-,N/A,,Overcast,100,2013-04-08 13:35:00
9:55 AM,42.8,35.6,76,30.05,9.0,East,4.6,-,N/A,,Overcast,100,2013-04-08 13:55:00
10:15 AM,46.4,37.4,71,30.04,10.0,East,3.5,-,N/A,,Overcast,90,2013-04-08 14:15:00
10:35 AM,48.2,37.4,66,30.03,10.0,East,6.9,-,N/A,,Overcast,100,2013-04-08 14:35:00
10:55 AM,51.8,37.4,58,30.03,10.0,East,4.6,-,N/A,,Overcast,90,2013-04-08 14:55:00
11:15 AM,55.4,39.2,54,30.02,10.0,SE,5.8,-,N/A,,Overcast,130,2013-04-08 15:15:00
11:35 AM,57.2,39.2,51,30.02,10.0,SSE,6.9,-,N/A,,Overcast,150,2013-04-08 15:35:00
11:55 AM,57.2,39.2,51,30.02,10.0,SSE,8.1,-,N/A,,Overcast,160,2013-04-08 15:55:00
12:15 PM,57.2,41.0,55,30.01,10.0,SSE,5.8,-,N/A,,Overcast,160,2013-04-08 16:15:00
12:35 PM,59.0,41.0,51,30.01,10.0,SSE,6.9,-,N/A,,Overcast,160,2013-04-08 16:35:00
12:55 PM,60.8,42.8,52,29.99,10.0,SE,8.1,-,N/A,,Overcast,140,2013-04-08 16:55:00
1:15 PM,64.4,44.6,49,29.97,10.0,SE,5.8,-,N/A,,Overcast,130,2013-04-08 17:15:00
1:35 PM,68.0,46.4,46,29.95,10.0,South,9.2,-,N/A,,Mostly Cloudy,170,2013-04-08 17:35:00
1:55 PM,69.8,46.4,43,29.95,10.0,SSW,15.0,20.7,N/A,,Mostly Cloudy,200,2013-04-08 17:55:00
2:15 PM,69.8,44.6,40,29.93,10.0,SSE,19.6,25.3,N/A,,Mostly Cloudy,160,2013-04-08 18:15:00
2:35 PM,68.0,44.6,43,29.94,10.0,SSW,16.1,23.0,N/A,,Mostly Cloudy,210,2013-04-08 18:35:00
2:55 PM,69.8,44.6,40,29.92,10.0,South,12.7,19.6,N/A,,Overcast,180,2013-04-08 18:55:00
3:15 PM,69.8,44.6,40,29.91,10.0,South,17.3,21.9,N/A,,Overcast,180,2013-04-08 19:15:00
3:35 PM,66.2,44.6,46,29.92,10.0,SSW,13.8,19.6,N/A,,Overcast,200,2013-04-08 19:35:00
3:55 PM,68.0,42.8,40,29.91,10.0,South,18.4,29.9,N/A,,Overcast,190,2013-04-08 19:55:00
4:15 PM,69.8,44.6,40,29.88,10.0,South,20.7,27.6,N/A,,Mostly Cloudy,190,2013-04-08 20:15:00
4:35 PM,69.8,44.6,40,29.89,10.0,South,20.7,24.2,N/A,,Mostly Cloudy,190,2013-04-08 20:35:00
4:55 PM,68.0,42.8,40,29.89,10.0,South,21.9,28.8,N/A,,Overcast,190,2013-04-08 20:55:00
5:15 PM,68.0,42.8,40,29.89,10.0,SSW,15.0,24.2,N/A,,Overcast,200,2013-04-08 21:15:00
5:35 PM,68.0,42.8,40,29.89,10.0,SW,13.8,20.7,N/A,,Overcast,220,2013-04-08 21:35:00
5:55 PM,66.2,42.8,43,29.89,10.0,SW,10.4,21.9,N/A,,Overcast,220,2013-04-08 21:55:00
6:15 PM,66.2,44.6,46,29.91,10.0,SSW,12.7,27.6,N/A,,Overcast,210,2013-04-08 22:15:00
6:35 PM,66.2,44.6,46,29.91,10.0,SSW,6.9,18.4,N/A,,Overcast,210,2013-04-08 22:35:00
6:55 PM,66.2,44.6,46,29.90,10.0,South,16.1,25.3,N/A,,Overcast,190,2013-04-08 22:55:00
7:15 PM,66.2,44.6,46,29.90,10.0,SSW,17.3,20.7,N/A,,Overcast,210,2013-04-08 23:15:00
7:35 PM,66.2,44.6,46,29.89,10.0,South,16.1,23.0,N/A,,Overcast,190,2013-04-08 23:35:00
7:55 PM,64.4,46.4,52,29.90,10.0,South,11.5,-,N/A,,Overcast,190,2013-04-08 23:55:00
8:15 PM,62.6,44.6,52,29.89,10.0,South,13.8,-,N/A,,Overcast,190,2013-04-09 00:15:00
8:35 PM,62.6,46.4,55,29.89,10.0,South,12.7,-,N/A,,Overcast,190,2013-04-09 00:35:00
8:55 PM,62.6,46.4,55,29.90,10.0,South,11.5,-,N/A,,Overcast,190,2013-04-09 00:55:00
9:15 PM,64.4,46.4,52,29.91,10.0,South,11.5,-,N/A,,Overcast,190,2013-04-09 01:15:00
9:35 PM,62.6,46.4,55,29.91,10.0,South,13.8,-,N/A,,Overcast,190,2013-04-09 01:35:00
9:55 PM,64.4,46.4,52,29.91,10.0,SSW,13.8,20.7,N/A,,Mostly Cloudy,200,2013-04-09 01:55:00
10:15 PM,64.4,46.4,52,29.91,10.0,SSW,13.8,-,N/A,,Overcast,200,2013-04-09 02:15:00
10:35 PM,64.4,46.4,52,29.93,10.0,SSW,15.0,20.7,N/A,,Mostly Cloudy,210,2013-04-09 02:35:00
10:55 PM,64.4,46.4,52,29.93,10.0,SW,17.3,26.5,N/A,,Scattered Clouds,220,2013-04-09 02:55:00
11:15 PM,64.4,46.4,52,29.93,10.0,SW,12.7,23.0,N/A,,Mostly Cloudy,230,2013-04-09 03:15:00
11:35 PM,64.4,46.4,52,29.93,10.0,SW,15.0,24.2,N/A,,Mostly Cloudy,220,2013-04-09 03:35:00
11:55 PM,64.4,46.4,52,29.93,10.0,SW,16.1,20.7,N/A,Thunderstorm,Overcast,230,2013-04-09 03:55:00